Weather Roundup
Issued by NWS Springfield, MO

Home | Current Version | Previous Version | Text Only | Print | Product List | Glossary On
Versions: 1 2 3 4 5 6 7 8 9 10 11 12 13 14 15 16 17 18 19 20 21 22 23 24 25 26 27 28 29 30 31 32 33 34 35 36 37 38 39 40 41 42 43 44 45 46 47 48 49 50
000
NZUS99 KSGF 260757
HRRSGF

HOURLY WEATHER
NATIONAL WEATHER SERVICE SPRINGFIELD MO
300 AM CDT TUE SEP 26 2017

......SGF CWA......

CITY           SKY/WX    TMP DP  RH WIND       PRES   REMARKS
SPRINGFIELD    CLEAR     69  63  81 SE9       29.95S
JOPLIN         CLOUDY    69  67  93 NW3       29.94R
WEST PLAINS    CLEAR     63  61  93 CALM      29.99S
ROLLA          PTCLDY    68  62  81 S7        29.97S

......SURROUNDING SGF CWA......

CITY           SKY/WX    TMP DP  RH WIND       PRES   REMARKS
CHANUTE        CLOUDY    69  64  84 CALM      29.96R
PARSONS        LGT RAIN  68  65  90 NW7       29.97R
COFFEYVILLE    CLOUDY    69  66  90 N7        29.93R
EMPORIA        CLOUDY    65  64  97 CALM      29.96R
HARRISON AR    CLEAR     66  63  90 SE3       29.98S

......KANSAS AND MISSOURI......

CITY           SKY/WX    TMP DP  RH WIND       PRES   REMARKS
KANSAS CTY INT CLOUDY    67  64  90 NE5       29.94S
SEDALIA        CLOUDY    71  66  84 CALM      29.94S
ST JOSEPH      CLOUDY    66  66 100 CALM      29.94R
ST LOUIS       MOCLDY    75  63  66 S5        29.95F
WICHITA        LGT RAIN  63  62  97 NW14      29.99R
TOPEKA         CLOUDY    66  66 100 W5        29.96R
OLATHE         MOCLDY    66  64  93 CALM      29.94S

......TENNESSEE......

CITY           SKY/WX    TMP DP  RH WIND       PRES   REMARKS
MEMPHIS        NOT AVBL
NASHVILLE      CLEAR     69  66  90 CALM      29.97F

......ARKANSAS.......

CITY           SKY/WX    TMP DP  RH WIND       PRES   REMARKS
FAYETTEVILLE   CLEAR     62  62 100 CALM      29.96S
FT SMITH       CLEAR     70  66  87 E3        29.92S
LITTLE ROCK    CLEAR     69  68  96 CALM      29.94S

......OKLAHOMA.......

CITY           SKY/WX    TMP DP  RH WIND       PRES   REMARKS
TULSA          CLOUDY    70  67  90 NW5       29.92S
PONCA CITY     CLOUDY    68  65  90 CALM      29.95S
MCALESTER      CLOUDY    77  66  68 S5        29.93R
OKLAHOMA CITY  LGT RAIN  69  67  93 NE8       29.94S

......IOWA............

CITY           SKY/WX    TMP DP  RH WIND       PRES   REMARKS
DES MOINES     NOT AVBL
QUAD CITIES    LGT RAIN  71  67  87 NE7       29.91F

......ILLINOIS........

CITY           SKY/WX    TMP DP  RH WIND       PRES   REMARKS
QUINCY         NOT AVBL
CHICAGO        PTCLDY    71  57  61 S3        29.93S




USA.gov is the U.S. government's official web portal to all federal, state and local government web resources and services.